Location: Newark
(45.5167°N, 11.1667°E)
Time: 07:21:24
(UTC+00:00)

Courier 1B Rocket - Visible Passes

Search period start: 14 December 2019 00:00
Search period end: 24 December 2019 00:00
Orbit: 920 x 1202 km, 28.2° (Epoch: 13 December)

Date Brightness Start Highest point End Pass type
(mag) Time Alt. Az. Time Alt. Az. Time Alt. Az.
14 Dec 7.4 04:15:19 10° SSW 04:19:03 15° SSE 04:22:40 10° SE visible
14 Dec 7.3 06:07:03 10° SW 06:11:22 18° S 06:15:32 10° SE visible
15 Dec 7.4 03:17:10 12° S 03:18:18 13° SSE 03:21:13 10° SE visible
15 Dec 7.2 05:06:07 10° SW 05:10:39 18° S 05:15:01 10° SE visible
16 Dec 7.2 04:06:31 13° SSW 04:09:53 17° S 04:14:14 10° SE visible
16 Dec 7.2 05:57:55 10° SW 06:02:14 17° S 06:06:24 10° SSE visible
17 Dec 7.2 03:09:25 16° SSE 03:09:25 16° SSE 03:13:12 10° SE visible
17 Dec 7.1 04:56:44 10° SW 05:01:30 19° S 05:06:04 10° SE visible
18 Dec 7.0 03:58:38 17° SSW 04:00:43 19° S 04:05:29 10° SE visible
18 Dec 7.2 05:49:00 10° SW 05:53:04 16° SSW 05:56:59 10° SSE visible
19 Dec 7.2 03:01:26 17° SSE 03:01:26 17° SSE 03:04:41 10° SE visible
19 Dec 7.1 04:47:48 11° SW 04:52:20 18° S 04:56:54 10° SSE visible
20 Dec 6.9 03:50:35 19° SSW 03:51:32 20° S 03:56:30 10° SE visible
20 Dec 7.3 05:40:27 10° SW 05:43:51 14° SSW 05:47:10 10° S visible
21 Dec 7.3 02:53:20 17° SSE 02:53:20 17° SSE 02:55:50 10° SE visible
21 Dec 7.1 04:39:42 12° SW 04:43:07 17° SSW 04:47:27 10° SSE visible
22 Dec 7.0 03:42:27 19° S 03:42:27 19° S 03:47:15 10° SE visible
22 Dec 7.4 05:32:44 10° SW 05:34:35 11° SSW 05:36:25 10° S visible
23 Dec 7.4 02:45:11 15° SSE 02:45:11 15° SSE 02:46:46 10° SE visible
23 Dec 7.2 04:31:33 13° SW 04:33:52 15° SSW 04:37:36 10° SSE visible
